Portada
METAR-TAF:

METAR-TAF

Aeroports :

Grove, Oklahoma, Estats Units d'Amèrica

latitud: 36-36-19N, longitud: 094-44-19W, altitud: 254 m

Observació

L'informe es va fer fa 27 minuts, a les 11:15 UTC
Vent calma
Temperatura 23°C
Humitat 89%
Pressió 1023 hPa
Visibilitat: 16.1 km
Núvols disperses a una alçada de 5000 ft
Núvols disperses a una alçada de 6000 ft
Cel ennuvolat a una alçada de 9000 ft

METAR: KGMJ 211115Z AUTO 00000KT 10SM SCT050 SCT060 BKN090 23/21 A3021 RMK AO2 TSNO

Hora: 06:42 (11:42 UTC)


TAF: manca

Observacions i pronòstics meteorològics de més de 4000 aeroports (METAR i TAF).

Les estacions disponibles són els punts grocs i vermells al mapa.

Posi el ratolí al punt desitjat per veure el nom de l'estació.

Feu clic per veure les observacions i els pronòstics meteorològics.

Per canviar el mapa: feu clic els botons verds amb una creu de color negre per apropar; al botó verd amb un guió per allunyar la imatge; o en les fletxes verdes per a mapes adjacents.


METAR-TAF: